• In Hungary
  • List of Countries
  • For 7 days
  • Water Temperature
  • Satellite Maps
  • Weather Map
  • News
  • Weather Widgets
  • user-avatar
    Login

    Hourly Weather Haarlem

    Today, 22 September, Saturday

    Time Temperature Precipitation Wind Pressure Humidity
    00:00 +11°C° 0 mm 8 mps 761 mmHg 76%
    01:00 +11°C° 0.2 mm 8 mps 761 mmHg 75%
    02:00 +11°C° 0.2 mm 8 mps 761 mmHg 75%
    03:00 +11°C° 0.2 mm 8 mps 762 mmHg 74%
    04:00 +11°C° 0 mm 8 mps 762 mmHg 75%
    05:00 +11°C° 0 mm 7 mps 762 mmHg 76%
    06:00 +11°C° 0 mm 7 mps 762 mmHg 77%
    07:00 +12°C° 0.1 mm 7 mps 763 mmHg 73%
    08:00 +13°C° 0.1 mm 8 mps 763 mmHg 69%
    09:00 +15°C° 0.1 mm 8 mps 763 mmHg 65%
    10:00 +15°C° 0.2 mm 8 mps 763 mmHg 67%
    11:00 +15°C° 0.2 mm 7 mps 763 mmHg 68%
    12:00 +14°C° 0.2 mm 7 mps 763 mmHg 70%
    13:00 +14°C° 0.2 mm 7 mps 763 mmHg 73%
    14:00 +14°C° 0.2 mm 6 mps 763 mmHg 75%
    15:00 +13°C° 0.2 mm 6 mps 763 mmHg 77%
    16:00 +13°C° 0.3 mm 5 mps 763 mmHg 79%
    17:00 +12°C° 0.3 mm 5 mps 763 mmHg 80%
    18:00 +12°C° 0.3 mm 4 mps 763 mmHg 82%
    19:00 +12°C° 0.3 mm 3 mps 763 mmHg 84%
    20:00 +12°C° 0.3 mm 3 mps 763 mmHg 86%
    21:00 +12°C° 0.3 mm 3 mps 763 mmHg 88%
    22:00 +12°C° 0.2 mm 2 mps 762 mmHg 88%
    23:00 +12°C° 0.2 mm 2 mps 762 mmHg 88%

    Tomorrow, 23 September, Sunday

    Time Temperature Precipitation Wind Pressure Humidity
    00:00 +12°C° 0.2 mm 2 mps 761 mmHg 88%
    01:00 +12°C° 0.1 mm 2 mps 761 mmHg 88%
    02:00 +12°C° 0.1 mm 2 mps 761 mmHg 89%
    03:00 +10°C° 0.1 mm 2 mps 760 mmHg 89%
    04:00 +10°C° 0.1 mm 2 mps 760 mmHg 89%
    05:00 +10°C° 0.1 mm 2 mps 760 mmHg 89%
    06:00 +10°C° 0.1 mm 2 mps 760 mmHg 89%
    07:00 +11°C° 0.5 mm 3 mps 760 mmHg 88%
    08:00 +11°C° 0.5 mm 3 mps 760 mmHg 87%
    09:00 +11°C° 0.5 mm 3 mps 760 mmHg 87%
    10:00 +11°C° 2 mm 4 mps 759 mmHg 88%
    11:00 +10°C° 2 mm 4 mps 759 mmHg 89%
    12:00 +9°C° 2 mm 5 mps 759 mmHg 90%
    13:00 +9°C° 1.3 mm 5 mps 759 mmHg 89%
    14:00 +9°C° 1.3 mm 5 mps 759 mmHg 88%
    15:00 +9°C° 1.3 mm 6 mps 760 mmHg 88%
    16:00 +9°C° 0.8 mm 6 mps 761 mmHg 87%
    17:00 +9°C° 0.8 mm 7 mps 762 mmHg 86%
    18:00 +9°C° 0.8 mm 8 mps 763 mmHg 84%
    19:00 +9°C° 0.1 mm 8 mps 764 mmHg 81%
    20:00 +9°C° 0.1 mm 8 mps 765 mmHg 78%
    21:00 +9°C° 0.1 mm 8 mps 766 mmHg 75%
    22:00 +9°C° 0.1 mm 8 mps 767 mmHg 75%
    23:00 +9°C° 0.1 mm 8 mps 768 mmHg 75%

    Day after tomorrow, 24 September, Monday

    Time Temperature Precipitation Wind Pressure Humidity
    00:00 +7°C° 0.1 mm 8 mps 769 mmHg 74%
    01:00 +7°C° 0 mm 8 mps 770 mmHg 74%
    02:00 +8°C° 0 mm 7 mps 771 mmHg 74%
    03:00 +8°C° 0 mm 7 mps 772 mmHg 74%
    04:00 +8°C° 0 mm 7 mps 772 mmHg 74%
    05:00 +8°C° 0 mm 6 mps 773 mmHg 73%
    06:00 +8°C° 0 mm 6 mps 773 mmHg 73%
    07:00 +9°C° 0.1 mm 6 mps 774 mmHg 68%
    08:00 +11°C° 0.1 mm 7 mps 774 mmHg 63%
    09:00 +14°C° 0.1 mm 7 mps 775 mmHg 58%
    10:00 +14°C° 0.2 mm 7 mps 775 mmHg 59%
    11:00 +14°C° 0.2 mm 7 mps 776 mmHg 60%
    12:00 +14°C° 0.2 mm 7 mps 776 mmHg 60%
    13:00 +14°C° 0.1 mm 7 mps 776 mmHg 58%
    14:00 +14°C° 0.1 mm 7 mps 776 mmHg 57%
    15:00 +15°C° 0.1 mm 6 mps 776 mmHg 55%
    16:00 +13°C° 0 mm 6 mps 776 mmHg 58%
    17:00 +12°C° 0 mm 5 mps 777 mmHg 61%
    18:00 +10°C° 0 mm 5 mps 777 mmHg 64%
    19:00 +10°C° 0.1 mm 4 mps 777 mmHg 68%
    20:00 +10°C° 0.1 mm 4 mps 778 mmHg 71%
    21:00 +9°C° 0.1 mm 3 mps 778 mmHg 75%
    22:00 +9°C° 0.1 mm 3 mps 778 mmHg 76%
    23:00 +9°C° 0.1 mm 3 mps 778 mmHg 78%

    25 September, Tuesday

    Time Temperature Precipitation Wind Pressure Humidity
    00:00 +8°C° 0.1 mm 2 mps 778 mmHg 79%
    01:00 +8°C° 0 mm 2 mps 778 mmHg 80%
    02:00 +8°C° 0 mm 2 mps 778 mmHg 80%
    03:00 +9°C° 0 mm 1 mps 778 mmHg 81%
    04:00 +9°C° 0 mm 1 mps 778 mmHg 81%
    05:00 +9°C° 0 mm 1 mps 779 mmHg 81%
    06:00 +8°C° 0 mm 1 mps 779 mmHg 82%
    07:00 +10°C° 0 mm 1 mps 779 mmHg 74%
    08:00 +12°C° 0 mm 1 mps 779 mmHg 67%
    09:00 +14°C° 0 mm 1 mps 779 mmHg 60%
    10:00 +15°C° 0 mm 1 mps 779 mmHg 56%
    11:00 +16°C° 0 mm 1 mps 779 mmHg 51%
    12:00 +18°C° 0 mm 1 mps 779 mmHg 47%
    13:00 +18°C° 0 mm 1 mps 778 mmHg 46%
    14:00 +18°C° 0 mm 1 mps 778 mmHg 45%
    15:00 +18°C° 0 mm 1 mps 777 mmHg 45%
    16:00 +15°C° 0 mm 1 mps 777 mmHg 49%
    17:00 +14°C° 0 mm 1 mps 777 mmHg 54%
    18:00 +12°C° 0 mm 1 mps 777 mmHg 59%
    19:00 +12°C° 0 mm 1 mps 777 mmHg 61%
    20:00 +10°C° 0 mm 2 mps 777 mmHg 62%
    21:00 +10°C° 0 mm 3 mps 776 mmHg 64%
    22:00 +9°C° 0 mm 3 mps 776 mmHg 66%
    23:00 +9°C° 0 mm 3 mps 776 mmHg 67%

    26 September, Wednesday

    Time Temperature Precipitation Wind Pressure Humidity
    00:00 +8°C° 0 mm 4 mps 775 mmHg 69%
    01:00 +7°C° 0 mm 4 mps 775 mmHg 69%
    02:00 +7°C° 0 mm 4 mps 775 mmHg 70%
    03:00 +7°C° 0 mm 5 mps 774 mmHg 70%
    04:00 +7°C° 0 mm 5 mps 774 mmHg 70%
    05:00 +7°C° 0 mm 5 mps 774 mmHg 71%
    06:00 +6°C° 0 mm 5 mps 773 mmHg 71%
    07:00 +8°C° 0 mm 5 mps 773 mmHg 66%
    08:00 +10°C° 0 mm 5 mps 773 mmHg 60%
    09:00 +13°C° 0 mm 5 mps 773 mmHg 55%
    10:00 +15°C° 0 mm 6 mps 773 mmHg 52%
    11:00 +16°C° 0 mm 6 mps 773 mmHg 48%
    12:00 +17°C° 0 mm 6 mps 772 mmHg 45%
    13:00 +17°C° 0 mm 6 mps 772 mmHg 46%
    14:00 +17°C° 0 mm 6 mps 771 mmHg 46%
    15:00 +17°C° 0 mm 7 mps 771 mmHg 47%
    16:00 +16°C° 0 mm 6 mps 771 mmHg 52%
    17:00 +14°C° 0 mm 6 mps 771 mmHg 56%
    18:00 +13°C° 0 mm 6 mps 771 mmHg 60%
    19:00 +11°C° 0 mm 6 mps 771 mmHg 62%
    20:00 +11°C° 0 mm 6 mps 771 mmHg 64%
    21:00 +11°C° 0 mm 6 mps 771 mmHg 65%
    22:00 +11°C° 0 mm 6 mps 770 mmHg 67%
    23:00 +11°C° 0 mm 6 mps 770 mmHg 69%

    27 September, Thursday

    Time Temperature Precipitation Wind Pressure Humidity
    00:00 +10°C° 0 mm 6 mps 770 mmHg 70%
    01:00 +10°C° 0 mm 6 mps 769 mmHg 71%
    02:00 +10°C° 0 mm 6 mps 769 mmHg 72%
    03:00 +10°C° 0 mm 7 mps 768 mmHg 74%
    04:00 +10°C° 0 mm 7 mps 768 mmHg 75%
    05:00 +10°C° 0 mm 7 mps 768 mmHg 76%
    06:00 +11°C° 0 mm 7 mps 768 mmHg 77%
    07:00 +12°C° 0 mm 7 mps 767 mmHg 73%
    08:00 +15°C° 0 mm 8 mps 767 mmHg 69%
    09:00 +17°C° 0 mm 8 mps 767 mmHg 66%
    10:00 +18°C° 0 mm 8 mps 767 mmHg 64%
    11:00 +20°C° 0 mm 8 mps 767 mmHg 63%
    12:00 +21°C° 0 mm 8 mps 767 mmHg 62%
    13:00 +20°C° 0 mm 8 mps 767 mmHg 66%
    14:00 +18°C° 0 mm 7 mps 767 mmHg 71%
    15:00 +18°C° 0 mm 7 mps 767 mmHg 75%
    16:00 +17°C° 0.1 mm 7 mps 767 mmHg 77%
    17:00 +16°C° 0.1 mm 7 mps 768 mmHg 80%
    18:00 +15°C° 0.1 mm 7 mps 768 mmHg 82%
    19:00 +14°C° 0 mm 6 mps 769 mmHg 81%
    20:00 +13°C° 0 mm 6 mps 769 mmHg 80%
    21:00 +13°C° 0 mm 6 mps 770 mmHg 79%
    22:00 +12°C° 0 mm 5 mps 770 mmHg 78%
    23:00 +12°C° 0 mm 5 mps 770 mmHg 78%
    Show more